Bloomington, IL

1:03 PM CDT on April 26, 2017 (GMT -0500)
Central Ill Regional

Weather History for KBMI - February, 2012

Change the Weather History Date:

Friday, February 10, 2012

  Actual Average Record
Temperature  
Mean Temperature 24 °F -  
Max Temperature 34 °F 22 °F 61 °F (2009)
Min Temperature 15 °F 6 °F -8 °F (2011)
Degree Days  
Heating Degree Days 40    
Moisture  
Dew Point 25 °F    
Average Humidity 91    
Maximum Humidity 100    
Minimum Humidity 62    
Precipitation  
Precipitation 0.00 in - - ()
Sea Level Pressure  
Sea Level Pressure 30.06 in    
Wind  
Wind Speed 14 mph (West)    
Max Wind Speed 30 mph    
Max Gust Speed 38 mph    
Visibility 6 miles    
Events Rain , Snow    
Averages and records for this station are not official NWS values.
T = Trace of Precipitation, MM = Missing Value Source: NWS Daily Summary

Daily Weather History Graph

Daily Weather History Graph

Search for Another Location

Airport or City:

Trip Planner

Search our weather history database for the weather conditions in past years. The results will help you decide how hot, cold, wet, or windy it might be!

Date:

Astronomy

Feb. 10, 2012 Rise Set
Actual Time 6:56 AM CST 5:24 PM CST
Civil Twilight 6:27 AM CST 5:52 PM CST
Nautical Twilight 5:55 AM CST 6:24 PM CST
Astronomical Twilight 5:23 AM CST 6:56 PM CST
Moon 9:03 PM CST (2/10) 8:03 AM CST (2/10)
Length of Visible Light 11h 24m
Length of Day
10h 28m
Waning Gibbous, 90% of the Moon is Illuminated
Feb 10
Waning Gibbous
Feb 14
Last Quarter
Feb 21
New
Feb 29
First Quarter
Mar 8
Full

Hourly Weather History & Observations

Time (CST) Temp. Windchill Dew Point Humidity Pressure Visibility Wind Dir Wind Speed Gust Speed Precip Events Conditions
12:56 AM 31.1 °F 22.4 °F 27.1 °F 85% 30.15 in 10.0 mi SSW 10.4 mph - N/A   Mostly Cloudy
1:56 AM 31.1 °F 22.4 °F 27.1 °F 85% 30.13 in 10.0 mi SSW 10.4 mph - N/A   Overcast
2:56 AM 31.1 °F 21.9 °F 28.0 °F 88% 30.10 in 10.0 mi SSW 11.5 mph - N/A   Partly Cloudy
3:56 AM 31.1 °F 21.9 °F 29.1 °F 92% 30.09 in 10.0 mi SSW 11.5 mph - N/A   Overcast
4:56 AM 31.1 °F 21.9 °F 30.0 °F 96% 30.07 in 10.0 mi SSW 11.5 mph - N/A   Overcast
5:56 AM 31.1 °F 20.9 °F 31.1 °F 100% 30.06 in 10.0 mi SSW 13.8 mph - N/A   Overcast
6:56 AM 31.1 °F 21.4 °F 31.1 °F 100% 30.04 in 8.0 mi SSW 12.7 mph - N/A   Overcast
7:56 AM 32.0 °F 22.5 °F 31.1 °F 96% 30.05 in 8.0 mi SSW 12.7 mph - N/A   Overcast
8:15 AM 32.0 °F 22.1 °F 30.2 °F 93% 30.00 in 7.0 mi SSW 13.8 mph - N/A   Overcast
8:56 AM 32.0 °F 23.6 °F 32.0 °F 100% 30.06 in 7.0 mi SW 10.4 mph - N/A   Overcast
9:13 AM 32.0 °F 23.0 °F 32.0 °F 100% 30.00 in 5.0 mi SW 11.5 mph - N/A   Overcast
9:21 AM 32.0 °F 22.5 °F 32.0 °F 100% 30.00 in 4.0 mi SW 12.7 mph - 0.00 in   Overcast
9:31 AM 32.0 °F 22.5 °F 32.0 °F 100% 29.99 in 4.0 mi SSW 12.7 mph - 0.00 in Rain Light Rain
9:44 AM 32.0 °F 23.0 °F 32.0 °F 100% 29.98 in 4.0 mi SSW 11.5 mph - 0.00 in Rain Light Rain
9:56 AM 32.0 °F 23.0 °F 32.0 °F 100% 30.02 in 4.0 mi SSW 11.5 mph - 0.00 in   Overcast
10:12 AM 33.8 °F 25.3 °F 33.8 °F 100% 29.97 in 5.0 mi SSW 11.5 mph - N/A   Overcast
10:39 AM 33.8 °F 25.3 °F 33.8 °F 100% 29.97 in 4.0 mi SW 11.5 mph - N/A   Overcast
10:56 AM 34.0 °F 25.5 °F 32.9 °F 96% 30.01 in 5.0 mi SW 11.5 mph - N/A   Overcast
11:56 AM 34.9 °F 26.2 °F 32.9 °F 92% 29.98 in 6.0 mi SW 12.7 mph - N/A   Overcast
12:56 PM 32.9 °F 23.7 °F 32.0 °F 96% 29.98 in 5.0 mi West 12.7 mph - 0.00 in Rain Light Rain
1:30 PM 32.0 °F 19.8 °F 30.2 °F 93% 29.94 in 2.5 mi WNW 20.7 mph - 0.00 in Snow Light Snow
1:46 PM 30.2 °F 18.1 °F 30.2 °F 100% 29.94 in 1.8 mi WNW 18.4 mph - 0.00 in Snow Light Snow
1:56 PM 31.1 °F 18.9 °F 30.0 °F 96% 29.99 in 1.2 mi WNW 19.6 mph - 0.00 in Snow Light Snow
2:25 PM 28.4 °F 15.1 °F 28.4 °F 100% 29.96 in 1.5 mi NW 20.7 mph - 0.00 in Snow Light Snow
2:56 PM 28.0 °F 14.9 °F 27.1 °F 96% 30.02 in 1.5 mi NW 19.6 mph - 0.00 in Snow Light Snow
3:25 PM 26.6 °F 13.1 °F 24.8 °F 93% 29.98 in 2.5 mi WNW 19.6 mph - 0.00 in Snow Light Snow
3:27 PM 26.6 °F 13.1 °F 24.8 °F 93% 29.98 in 3.0 mi WNW 19.6 mph - 0.00 in Snow Light Snow
3:56 PM 27.1 °F 13.4 °F 25.2 °F 92% 30.04 in 6.0 mi WNW 20.7 mph - 0.00 in   Overcast
4:56 PM 25.2 °F 10.8 °F 22.1 °F 88% 30.08 in 4.0 mi NNW 20.7 mph - 0.00 in Snow Light Snow
4:59 PM 24.8 °F 10.7 °F 21.2 °F 86% 30.02 in 2.5 mi NW 19.6 mph - 0.00 in Snow Light Snow
5:29 PM 23.0 °F 6.6 °F 19.4 °F 86% 30.04 in 4.0 mi NNW 25.3 mph - 0.00 in Snow Light Snow
5:56 PM 22.1 °F 6.0 °F 18.1 °F 85% 30.12 in 10.0 mi NNW 23.0 mph - 0.00 in Snow Light Snow
6:56 PM 18.1 °F -0.9 °F 14.0 °F 84% 30.16 in 9.0 mi North 28.8 mph - 0.00 in Snow Light Snow
7:56 PM 17.1 °F -1.4 °F 13.1 °F 84% 30.19 in 4.0 mi NNW 25.3 mph - 0.00 in Snow Light Snow
8:56 PM 16.2 °F -3.9 °F 9.1 °F 74% 30.22 in 10.0 mi North 29.9 mph 38.0 mph 0.00 in   Overcast
9:12 PM 15.8 °F -1.9 °F 10.4 °F 79% 30.17 in 10.0 mi NNW 21.9 mph - N/A   Overcast
9:56 PM 16.2 °F -0.6 °F 10.0 °F 77% 30.26 in 10.0 mi NNW 19.6 mph - N/A   Overcast
10:56 PM 16.2 °F -2.2 °F 8.1 °F 70% 30.27 in 10.0 mi NNW 24.2 mph - 0.00 in Snow Light Snow
11:56 PM 15.1 °F -2.9 °F 4.1 °F 62% 30.29 in 10.0 mi NNW 21.9 mph - 0.00 in   Overcast